Regional Weather Roundup
Issued by NWS

Home | Current Version | Previous Version | Graphics & Text | Print | Product List | Glossary On
Versions: 1 2 3 4 5 6 7 8 9 10 11 12 13 14 15 16 17 18 19 20 21 22 23 24 25 26 27 28 29 30 31 32 33 34 35 36 37 38 39 40 41 42 43 44 45 46 47 48 49 50
000
ASUS43 KLMK 230002
RWRKY
KENTUCKY REGIONAL WEATHER ROUNDUP
NATIONAL WEATHER SERVICE LOUISVILLE KY
700 PM EST WED FEB 22 2017

NOTE "FAIR" INDICATES FEW OR NO CLOUDS BELOW 12,000 FEET
WITH NO SIGNIFICANT WEATHER AND/OR OBSTRUCTIONS TO VISIBILITY.

KYZ001>023-026-027-061>063-070>075-230100-
WESTERN AND SOUTH CENTRAL KENTUCKY

CITY           SKY/WX    TMP DP  RH WIND       PRES   REMARKS
PADUCAH        PTCLDY    67  54  63 SW5       29.78S
HENDERSON      MOCLDY    63  54  72 SW3       29.79R
OWENSBORO      CLOUDY    67  58  72 S6        29.80R
HOPKINSVILLE   PTCLDY    69  56  64 S9        29.81R
BOWLING GREEN  CLOUDY    68  56  65 S8        29.83R
GLASGOW        NOT AVBL
$$

KYZ024-025-028>034-038-045-046-053-230100-
NORTH CENTRAL KENTUCKY

CITY           SKY/WX    TMP DP  RH WIND       PRES   REMARKS
LOUISVILLE/SDF CLOUDY    68  54  60 S7        29.81R
LOUISVILLE/LOU CLOUDY    69  56  62 VRB5      29.81R
FORT KNOX      CLOUDY    63  56  78 S3        29.80R
$$

KYZ035>037-039>044-047>052-055>060-089>105-230100-
NORTHEAST KENTUCKY

CITY           SKY/WX    TMP DP  RH WIND       PRES   REMARKS
LEXINGTON      MOCLDY    63  55  75 S6        29.83S
COVINGTON      MOCLDY    61  57  87 SE6       29.80S
FRANKFORT      CLOUDY    66  54  65 SW6       29.81R
$$

KYZ054-064>069-076>088-106>120-230100-
SOUTHEAST KENTUCKY

CITY           SKY/WX    TMP DP  RH WIND       PRES   REMARKS
JACKSON        PTCLDY    57  54  89 SW3       29.87S
LONDON         CLOUDY    61  53  75 S5        29.87S
SOMERSET       CLOUDY    61  54  77 CALM      29.88R
MIDDLESBORO    CLOUDY    58  55  89 S3        29.91R
MONTICELLO     CLOUDY    61  55  81 VRB7      29.88R
$$




USA.gov is the U.S. government's official web portal to all federal, state and local government web resources and services.